| time (UTC) | temp F | wind direction | speed knots | gust knots | rain 1hr in | rain 24hr in | rain mn in | humidity % | barometer mb |
| 20260506034205 | 69 | 41 | 3.5 | 7.8 | 0.00 | 0.01 | 0.01 | 71 | 1028.1 |
| 20260506033705 | 70 | 38 | 4.3 | 10.4 | 0.00 | 0.01 | 0.01 | 69 | 1028.2 |
| 20260506033204 | 69 | 57 | 3.5 | 11.3 | 0.00 | 0.01 | 0.01 | 70 | 1028.0 |
| 20260506032704 | 69 | 46 | 4.3 | 7.8 | 0.00 | 0.01 | 0.01 | 71 | 1028.2 |
| 20260506032204 | 69 | 59 | 2.6 | 7.0 | 0.00 | 0.01 | 0.01 | 71 | 1028.0 |
| 20260506031205 | 69 | 45 | 4.3 | 8.7 | 0.00 | 0.01 | 0.01 | 72 | 1028.1 |
| 20260506030705 | 68 | 40 | 3.5 | 6.1 | 0.00 | 0.01 | 0.01 | 76 | 1028.1 |
| 20260506030204 | 68 | 46 | 1.7 | 5.2 | 0.00 | 0.01 | 0.01 | 77 | 1028.0 |
| 20260506025704 | 68 | 52 | 1.7 | 4.3 | 0.00 | 0.01 | 0.01 | 77 | 1028.0 |
| 20260506024705 | 68 | 56 | 1.7 | 5.2 | 0.00 | 0.01 | 0.01 | 78 | 1028.1 |
| 20260506024204 | 68 | 110 | 3.5 | 6.1 | 0.00 | 0.01 | 0.01 | 78 | 1028.1 |
| 20260506023704 | 68 | 94 | 1.7 | 4.3 | 0.00 | 0.01 | 0.01 | 78 | 1028.0 |
| 20260506023204 | 68 | 2 | 0.9 | 4.3 | 0.00 | 0.01 | 0.01 | 78 | 1028.0 |
| 20260506022705 | 68 | 112 | 3.5 | 5.2 | 0.00 | 0.01 | 0.01 | 77 | 1028.1 |
| 20260506022204 | 69 | 86 | 2.6 | 6.1 | 0.00 | 0.01 | 0.01 | 77 | 1028.1 |
| 20260506021205 | 69 | 65 | 3.5 | 6.1 | 0.00 | 0.01 | 0.01 | 75 | 1028.1 |
| 20260506020205 | 69 | 39 | 2.6 | 6.1 | 0.00 | 0.01 | 0.01 | 73 | 1028.3 |
| 20260506015704 | 69 | 20 | 3.5 | 7.8 | 0.00 | 0.01 | 0.01 | 73 | 1028.2 |
| 20260506015205 | 69 | 41 | 4.3 | 7.0 | 0.00 | 0.01 | 0.01 | 73 | 1028.4 |
| 20260506014704 | 69 | 22 | 5.2 | 8.7 | 0.00 | 0.01 | 0.01 | 74 | 1028.4 |
| 20260506014204 | 69 | 43 | 5.2 | 11.3 | 0.00 | 0.01 | 0.01 | 73 | 1028.4 |
| 20260506013704 | 69 | 20 | 4.3 | 10.4 | 0.00 | 0.01 | 0.01 | 74 | 1028.5 |
| 20260506012704 | 69 | 42 | 4.3 | 8.7 | 0.00 | 0.01 | 0.01 | 74 | 1028.3 |
| 20260506012205 | 69 | 16 | 6.1 | 10.4 | 0.00 | 0.01 | 0.01 | 74 | 1028.4 |
| 20260506011704 | 69 | 44 | 2.6 | 7.0 | 0.00 | 0.01 | 0.01 | 74 | 1028.6 |
| 20260506011204 | 68 | 50 | 4.3 | 7.0 | 0.00 | 0.01 | 0.01 | 79 | 1028.6 |
| 20260506010704 | 67 | 39 | 2.6 | 6.1 | 0.00 | 0.01 | 0.01 | 79 | 1028.7 |
| 20260506010204 | 67 | 54 | 2.6 | 7.0 | 0.00 | 0.01 | 0.01 | 83 | 1028.8 |
| 20260506005704 | 67 | 46 | 2.6 | 7.8 | 0.00 | 0.01 | 0.01 | 84 | 1028.7 |
| 20260506005204 | 67 | 47 | 6.1 | 13.0 | 0.00 | 0.01 | 0.01 | 80 | 1028.9 |
| 20260506004704 | 68 | 48 | 6.1 | 10.4 | 0.00 | 0.01 | 0.01 | 77 | 1028.7 |
| 20260506004204 | 69 | 36 | 5.2 | 7.8 | 0.00 | 0.01 | 0.01 | 75 | 1028.8 |
| 20260506003704 | 69 | 18 | 3.5 | 6.1 | 0.00 | 0.01 | 0.01 | 73 | 1028.7 |
| 20260506003204 | 70 | 36 | 2.6 | 7.0 | 0.00 | 0.01 | 0.01 | 73 | 1028.9 |
| 20260506002704 | 71 | 6 | 4.3 | 10.4 | 0.00 | 0.01 | 0.01 | 72 | 1028.9 |
| 20260506002205 | 70 | 42 | 4.3 | 7.0 | 0.00 | 0.01 | 0.01 | 73 | 1028.9 |
| 20260506001704 | 69 | 27 | 3.5 | 8.7 | 0.00 | 0.01 | 0.01 | 73 | 1029.1 |
| 20260506000205 | 69 | 41 | 4.3 | 7.8 | 0.00 | 0.01 | 0.01 | 74 | 1029.5 |
| 20260505235704 | 69 | 57 | 3.5 | 8.7 | 0.00 | 0.01 | 0.01 | 75 | 1029.4 |
| 20260505235204 | 68 | 81 | 1.7 | 5.2 | 0.00 | 0.01 | 0.01 | 78 | 1029.5 |
| 20260505234204 | 67 | 44 | 2.6 | 7.8 | 0.00 | 0.01 | 0.01 | 77 | 1029.7 |
| 20260505233704 | 68 | 37 | 4.3 | 6.1 | 0.00 | 0.01 | 0.01 | 75 | 1030.0 |
| 20260505233204 | 69 | 11 | 4.3 | 7.8 | 0.00 | 0.01 | 0.01 | 73 | 1030.0 |
| 20260505232704 | 69 | 339 | 2.6 | 7.0 | 0.00 | 0.01 | 0.01 | 73 | 1029.8 |
| 20260505232204 | 69 | 317 | 3.5 | 6.1 | 0.00 | 0.01 | 0.01 | 75 | 1030.0 |
| 20260505231704 | 69 | 348 | 2.6 | 4.3 | 0.00 | 0.01 | 0.01 | 75 | 1030.2 |
| 20260505231204 | 68 | 62 | 2.6 | 5.2 | 0.00 | 0.01 | 0.01 | 77 | 1030.2 |
| 20260505230704 | 67 | 3 | 1.7 | 4.3 | 0.00 | 0.01 | 0.01 | 79 | 1030.2 |
| 20260505230204 | 68 | 26 | 1.7 | 5.2 | 0.00 | 0.01 | 0.01 | 78 | 1030.3 |
| 20260505225704 | 67 | 70 | 2.6 | 4.3 | 0.00 | 0.01 | 0.01 | 83 | 1030.2 |
| 20260505225204 | 66 | 280 | 0.0 | 1.7 | 0.00 | 0.01 | 0.01 | 83 | 1030.2 |
| 20260505224705 | 65 | 179 | 0.9 | 4.3 | 0.00 | 0.01 | 0.01 | 84 | 1030.2 |
| 20260505224204 | 66 | 121 | 0.9 | 2.6 | 0.00 | 0.01 | 0.01 | 82 | 1030.3 |
| 20260505223203 | 65 | 118 | 1.7 | 6.1 | 0.00 | 0.01 | 0.01 | 86 | 1030.4 |
| 20260505222704 | 65 | 96 | 2.6 | 7.0 | 0.00 | 0.01 | 0.01 | 85 | 1030.4 |
| 20260505222204 | 65 | 92 | 1.7 | 5.2 | 0.00 | 0.01 | 0.01 | 84 | 1030.3 |
| 20260505221704 | 65 | 130 | 2.6 | 5.2 | 0.00 | 0.01 | 0.01 | 85 | 1030.5 |
| 20260505221204 | 64 | 104 | 1.7 | 4.3 | 0.00 | 0.01 | 0.01 | 87 | 1030.6 |
| 20260505220704 | 64 | 142 | 0.9 | 2.6 | 0.00 | 0.00 | 0.00 | 90 | 1030.5 |
| 20260505220203 | 63 | 57 | 1.7 | 4.3 | 0.00 | 0.00 | 0.00 | 89 | 1030.5 |
| 20260505215705 | 63 | 146 | 1.7 | 4.3 | 0.00 | 0.00 | 0.00 | 89 | 1030.5 |
| 20260505215204 | 63 | 121 | 1.7 | 4.3 | 0.00 | 0.00 | 0.00 | 90 | 1030.5 |
| 20260505214704 | 63 | 121 | 4.3 | 5.2 | 0.00 | 0.00 | 0.00 | 90 | 1030.5 |
| 20260505213704 | 62 | 112 | 2.6 | 6.1 | 0.00 | 0.00 | 0.00 | 91 | 1030.4 |
| 20260505212704 | 62 | 115 | 2.6 | 5.2 | 0.00 | 0.00 | 0.00 | 91 | 1030.5 |
| 20260505212205 | 62 | 60 | 1.7 | 4.3 | 0.00 | 0.00 | 0.00 | 92 | 1030.6 |
| 20260505211704 | 61 | 37 | 0.9 | 2.6 | 0.00 | 0.00 | 0.00 | 93 | 1030.8 |
| 20260505211204 | 61 | 110 | 1.7 | 4.3 | 0.00 | 0.00 | 0.00 | 94 | 1030.8 |
| 20260505210704 | 61 | 55 | 0.9 | 2.6 | 0.00 | 0.00 | 0.00 | 95 | 1031.0 |
| 20260505210204 | 60 | 103 | 0.0 | 2.6 | 0.00 | 0.00 | 0.00 | 95 | 1030.7 |
| 20260505205704 | 60 | 30 | 0.0 | 2.6 | 0.00 | 0.00 | 0.00 | 95 | 1030.5 |
| 20260505205204 | 59 | 148 | 2.6 | 4.3 | 0.00 | 0.00 | 0.00 | 96 | 1030.6 |
| 20260505204705 | 59 | 62 | 0.9 | 4.3 | 0.00 | 0.00 | 0.00 | 96 | 1030.7 |
| 20260505204204 | 59 | 139 | 1.7 | 2.6 | 0.00 | 0.00 | 0.00 | 96 | 1030.8 |
| 20260505203704 | 58 | 130 | 1.7 | 5.2 | 0.00 | 0.00 | 0.00 | 96 | 1030.6 |
| 20260505202704 | 58 | 137 | 1.7 | 5.2 | 0.00 | 0.00 | 0.00 | 96 | 1030.6 |
| 20260505202204 | 58 | 140 | 1.7 | 4.3 | 0.00 | 0.00 | 0.00 | 96 | 1030.3 |
| 20260505201705 | 58 | 123 | 1.7 | 2.6 | 0.00 | 0.00 | 0.00 | 96 | 1030.5 |
| 20260505201204 | 58 | 130 | 0.9 | 4.3 | 0.00 | 0.00 | 0.00 | 96 | 1030.3 |
| 20260505195704 | 57 | 131 | 0.9 | 2.6 | 0.00 | 0.00 | 0.00 | 96 | 1030.3 |
| 20260505195204 | 57 | 343 | 0.0 | 1.7 | 0.00 | 0.00 | 0.00 | 96 | 1030.3 |
| 20260505194704 | 57 | 122 | 0.9 | 4.3 | 0.00 | 0.00 | 0.00 | 96 | 1030.4 |
| 20260505193704 | 57 | 118 | 1.7 | 4.3 | 0.00 | 0.00 | 0.00 | 96 | 1030.1 |
| 20260505193204 | 57 | 134 | 2.6 | 4.3 | 0.00 | 0.00 | 0.00 | 96 | 1030.1 |
| 20260505192704 | 57 | 132 | 1.7 | 4.3 | 0.00 | 0.00 | 0.00 | 96 | 1030.1 |
| 20260505192204 | 57 | 127 | 0.9 | 2.6 | 0.00 | 0.00 | 0.00 | 96 | 1030.0 |
| 20260505191704 | 57 | 133 | 1.7 | 4.3 | 0.00 | 0.00 | 0.00 | 96 | 1030.1 |
| 20260505191205 | 57 | 123 | 2.6 | 5.2 | 0.00 | 0.00 | 0.00 | 96 | 1030.0 |
| 20260505190704 | 57 | 137 | 2.6 | 6.1 | 0.00 | 0.00 | 0.00 | 96 | 1030.0 |
| 20260505185704 | 57 | 64 | 0.0 | 2.6 | 0.00 | 0.00 | 0.00 | 96 | 1030.0 |
| 20260505185204 | 57 | 182 | 0.9 | 4.3 | 0.00 | 0.00 | 0.00 | 96 | 1029.8 |
| 20260505184704 | 57 | 150 | 1.7 | 5.2 | 0.00 | 0.00 | 0.00 | 96 | 1029.8 |
| 20260505183704 | 57 | 148 | 1.7 | 2.6 | 0.00 | 0.00 | 0.00 | 95 | 1030.0 |
| 20260505182704 | 57 | 126 | 0.9 | 2.6 | 0.00 | 0.00 | 0.00 | 95 | 1030.0 |
| 20260505181704 | 57 | 115 | 2.6 | 4.3 | 0.00 | 0.00 | 0.00 | 95 | 1030.1 |
| 20260505181204 | 57 | 111 | 1.7 | 4.3 | 0.00 | 0.00 | 0.00 | 95 | 1029.7 |
| 20260505180704 | 57 | 87 | 0.9 | 4.3 | 0.00 | 0.00 | 0.00 | 95 | 1029.6 |
| 20260505180204 | 57 | 116 | 0.9 | 4.3 | 0.00 | 0.00 | 0.00 | 95 | 1029.8 |
| 20260505175704 | 56 | 116 | 1.7 | 4.3 | 0.00 | 0.00 | 0.00 | 95 | 1029.7 |
| 20260505175204 | 56 | 121 | 2.6 | 4.3 | 0.00 | 0.00 | 0.00 | 95 | 1029.9 |
| 20260505174704 | 56 | 130 | 0.9 | 2.6 | 0.00 | 0.00 | 0.00 | 95 | 1029.8 |
| 20260505174204 | 56 | 138 | 0.0 | 1.7 | 0.00 | 0.00 | 0.00 | 95 | 1029.8 |
| 20260505173704 | 55 | 78 | 0.9 | 1.7 | 0.00 | 0.00 | 0.00 | 95 | 1030.1 |
| 20260505173204 | 55 | 25 | 0.0 | 0.0 | 0.00 | 0.00 | 0.00 | 95 | 1030.2 |
| 20260505172704 | 55 | 356 | 0.0 | 0.0 | 0.00 | 0.00 | 0.00 | 95 | 1029.9 |
| 20260505172204 | 55 | 356 | 0.0 | 0.0 | 0.00 | 0.00 | 0.00 | 95 | 1029.9 |
| 20260505171204 | 55 | 329 | 0.0 | 0.9 | 0.00 | 0.00 | 0.00 | 95 | 1030.1 |
| 20260505170704 | 55 | 139 | 0.0 | 0.0 | 0.00 | 0.00 | 0.00 | 95 | 1029.9 |
| 20260505165704 | 55 | 206 | 0.0 | 0.9 | 0.00 | 0.00 | 0.00 | 95 | 1029.8 |
| 20260505165204 | 55 | 189 | 0.0 | 0.9 | 0.00 | 0.00 | 0.00 | 95 | 1030.0 |
| 20260505164704 | 55 | 285 | 0.0 | 0.9 | 0.00 | 0.00 | 0.00 | 95 | 1029.8 |
| 20260505163704 | 55 | 110 | 0.0 | 0.9 | 0.00 | 0.00 | 0.00 | 95 | 1029.9 |
| 20260505163204 | 55 | 64 | 0.9 | 1.7 | 0.00 | 0.00 | 0.00 | 95 | 1029.9 |
| 20260505162704 | 55 | 129 | 1.7 | 1.7 | 0.00 | 0.00 | 0.00 | 95 | 1029.8 |
| 20260505162204 | 55 | 66 | 0.0 | 1.7 | 0.00 | 0.00 | 0.00 | 95 | 1030.0 |
| 20260505161704 | 55 | 302 | 0.9 | 1.7 | 0.00 | 0.00 | 0.00 | 95 | 1029.9 |
| 20260505161203 | 55 | 0 | 0.0 | 0.9 | 0.00 | 0.00 | 0.00 | 95 | 1029.8 |
| 20260505160707 | 55 | 260 | 0.9 | 0.9 | 0.00 | 0.00 | 0.00 | 95 | 1029.8 |
| 20260505160204 | 55 | 259 | 0.0 | 0.0 | 0.00 | 0.00 | 0.00 | 95 | 1029.8 |
| 20260505153203 | 53 | 269 | 0.9 | 2.6 | 0.00 | 0.00 | 0.00 | 94 | 1030.1 |
| 20260505152704 | 53 | 288 | 0.9 | 1.7 | 0.00 | 0.00 | 0.00 | 94 | 1029.9 |
| 20260505151704 | 54 | 239 | 1.7 | 1.7 | 0.00 | 0.00 | 0.00 | 93 | 1030.0 |
| 20260505151204 | 55 | 18 | 0.0 | 0.9 | 0.00 | 0.00 | 0.00 | 94 | 1030.3 |
| 20260505150705 | 54 | 77 | 0.9 | 1.7 | 0.00 | 0.00 | 0.00 | 93 | 1030.3 |
| 20260505150204 | 55 | 89 | 0.9 | 0.9 | 0.00 | 0.00 | 0.00 | 93 | 1030.2 |
| 20260505140204 | 57 | 20 | 0.9 | 0.9 | 0.00 | 0.00 | 0.00 | 93 | 1030.6 |
| 20260505130204 | 55 | 265 | 1.7 | 1.7 | 0.00 | 0.00 | 0.00 | 91 | 1031.3 |
| 20260505124204 | 56 | 149 | 1.7 | 1.7 | 0.00 | 0.00 | 0.00 | 90 | 1031.4 |
| 20260505123204 | 57 | 198 | 0.0 | 0.9 | 0.00 | 0.00 | 0.00 | 91 | 1031.3 |
| 20260505122205 | 56 | 268 | 0.9 | 1.7 | 0.00 | 0.00 | 0.00 | 92 | 1031.5 |
| 20260505121703 | 56 | 251 | 0.9 | 2.6 | 0.00 | 0.00 | 0.00 | 91 | 1031.3 |
| 20260505121204 | 56 | 237 | 1.7 | 1.7 | 0.00 | 0.00 | 0.00 | 90 | 1031.5 |
| 20260505120703 | 56 | 236 | 0.9 | 1.7 | 0.00 | 0.00 | 0.00 | 90 | 1031.2 |
| 20260505115704 | 57 | 308 | 0.0 | 0.0 | 0.00 | 0.00 | 0.00 | 90 | 1031.2 |
| 20260505115204 | 57 | 309 | 0.0 | 0.9 | 0.00 | 0.00 | 0.00 | 90 | 1031.3 |
| 20260505114704 | 57 | 318 | 0.9 | 1.7 | 0.00 | 0.00 | 0.00 | 89 | 1031.5 |
| 20260505114204 | 57 | 273 | 1.7 | 2.6 | 0.00 | 0.00 | 0.00 | 89 | 1031.4 |
| 20260505113704 | 58 | 274 | 1.7 | 1.7 | 0.00 | 0.00 | 0.00 | 88 | 1031.4 |
| 20260505113205 | 58 | 286 | 1.7 | 2.6 | 0.00 | 0.00 | 0.00 | 88 | 1031.6 |
| 20260505112704 | 58 | 292 | 1.7 | 1.7 | 0.00 | 0.00 | 0.00 | 88 | 1031.5 |
| 20260505112204 | 58 | 120 | 0.0 | 1.7 | 0.00 | 0.00 | 0.00 | 87 | 1031.5 |
| 20260505111704 | 58 | 125 | 0.9 | 1.7 | 0.00 | 0.00 | 0.00 | 87 | 1031.5 |
| 20260505110204 | 58 | 358 | 0.0 | 0.9 | 0.00 | 0.00 | 0.00 | 87 | 1031.4 |
| 20260505102205 | 59 | 141 | 0.0 | 0.0 | 0.00 | 0.00 | 0.00 | 86 | 1031.8 |
| 20260505101205 | 59 | 132 | 0.0 | 0.0 | 0.00 | 0.00 | 0.00 | 86 | 1031.8 |
| 20260505100205 | 58 | 159 | 1.7 | 1.7 | 0.00 | 0.00 | 0.00 | 88 | 1031.7 |
| 20260505095705 | 59 | 235 | 0.9 | 1.7 | 0.00 | 0.00 | 0.00 | 87 | 1032.0 |
| 20260505095204 | 59 | 259 | 1.7 | 1.7 | 0.00 | 0.00 | 0.00 | 86 | 1032.0 |
| 20260505094704 | 59 | 321 | 0.0 | 0.0 | 0.00 | 0.00 | 0.00 | 86 | 1031.8 |
| 20260505093704 | 59 | 131 | 0.0 | 0.9 | 0.00 | 0.00 | 0.00 | 87 | 1031.7 |
| 20260505093204 | 59 | 301 | 0.0 | 0.0 | 0.00 | 0.00 | 0.00 | 87 | 1031.8 |
| 20260505092705 | 59 | 301 | 0.9 | 1.7 | 0.00 | 0.00 | 0.00 | 86 | 1032.0 |
| 20260505092205 | 59 | 285 | 1.7 | 1.7 | 0.00 | 0.00 | 0.00 | 86 | 1032.0 |
| 20260505091705 | 59 | 125 | 0.0 | 0.0 | 0.00 | 0.00 | 0.00 | 86 | 1031.9 |
| 20260505091205 | 59 | 139 | 0.9 | 1.7 | 0.00 | 0.00 | 0.00 | 86 | 1032.0 |
| 20260505090705 | 59 | 129 | 0.9 | 0.9 | 0.00 | 0.00 | 0.00 | 85 | 1031.9 |
| 20260505090204 | 59 | 335 | 0.0 | 0.9 | 0.00 | 0.00 | 0.00 | 84 | 1032.1 |
| 20260505085705 | 60 | 333 | 0.9 | 1.7 | 0.00 | 0.00 | 0.00 | 83 | 1031.7 |
| 20260505085205 | 60 | 108 | 0.0 | 0.9 | 0.00 | 0.00 | 0.00 | 83 | 1031.9 |
| 20260505084705 | 60 | 41 | 0.0 | 1.7 | 0.00 | 0.00 | 0.00 | 83 | 1031.8 |
| 20260505084204 | 60 | 73 | 0.9 | 1.7 | 0.00 | 0.00 | 0.00 | 83 | 1031.7 |
| 20260505083704 | 60 | 137 | 0.0 | 0.0 | 0.00 | 0.00 | 0.00 | 83 | 1031.8 |
| 20260505083205 | 60 | 149 | 0.0 | 0.0 | 0.00 | 0.00 | 0.00 | 84 | 1031.8 |
| 20260505082705 | 60 | 326 | 0.0 | 0.0 | 0.00 | 0.00 | 0.00 | 84 | 1031.7 |
| 20260505082204 | 59 | 328 | 0.0 | 0.9 | 0.00 | 0.00 | 0.00 | 84 | 1031.9 |
| 20260505081704 | 59 | 36 | 0.0 | 0.9 | 0.00 | 0.00 | 0.00 | 85 | 1031.8 |
| 20260505081206 | 59 | 158 | 0.9 | 1.7 | 0.00 | 0.00 | 0.00 | 85 | 1031.8 |
| 20260505080705 | 59 | 150 | 0.9 | 1.7 | 0.00 | 0.00 | 0.00 | 86 | 1031.7 |
| 20260505080204 | 59 | 216 | 1.7 | 1.7 | 0.00 | 0.00 | 0.00 | 85 | 1031.8 |
| 20260505075704 | 59 | 187 | 0.9 | 2.6 | 0.00 | 0.00 | 0.00 | 84 | 1031.8 |
| 20260505075205 | 59 | 242 | 1.7 | 2.6 | 0.00 | 0.00 | 0.00 | 85 | 1031.8 |
| 20260505074204 | 60 | 216 | 1.7 | 1.7 | 0.00 | 0.00 | 0.00 | 83 | 1032.0 |
| 20260505073704 | 60 | 222 | 0.9 | 0.9 | 0.00 | 0.00 | 0.00 | 82 | 1031.8 |
| 20260505073204 | 60 | 81 | 0.0 | 0.0 | 0.00 | 0.00 | 0.00 | 83 | 1031.9 |
| 20260505072704 | 60 | 32 | 0.0 | 0.0 | 0.00 | 0.00 | 0.00 | 83 | 1031.7 |
| 20260505072205 | 60 | 32 | 0.0 | 0.9 | 0.00 | 0.00 | 0.00 | 83 | 1031.6 |
| 20260505071705 | 59 | 90 | 0.9 | 0.9 | 0.00 | 0.00 | 0.00 | 84 | 1031.6 |
| 20260505071204 | 59 | 80 | 0.0 | 1.7 | 0.00 | 0.00 | 0.00 | 85 | 1031.6 |
| 20260505070705 | 59 | 130 | 1.7 | 2.6 | 0.00 | 0.00 | 0.00 | 86 | 1031.5 |
| 20260505070205 | 59 | 142 | 1.7 | 2.6 | 0.00 | 0.00 | 0.00 | 86 | 1031.6 |
| 20260505065205 | 59 | 63 | 1.7 | 1.7 | 0.00 | 0.00 | 0.00 | 85 | 1031.7 |
| 20260505064704 | 59 | 73 | 0.9 | 1.7 | 0.00 | 0.00 | 0.00 | 85 | 1031.6 |
| 20260505064204 | 59 | 111 | 0.0 | 0.9 | 0.00 | 0.00 | 0.00 | 84 | 1031.4 |
| 20260505063705 | 59 | 114 | 0.9 | 1.7 | 0.00 | 0.00 | 0.00 | 84 | 1031.6 |
| 20260505062205 | 58 | 285 | 0.9 | 1.7 | 0.00 | 0.00 | 0.00 | 85 | 1031.5 |
| 20260505061705 | 58 | 274 | 1.7 | 2.6 | 0.00 | 0.00 | 0.00 | 84 | 1031.5 |
| 20260505061204 | 59 | 258 | 1.7 | 2.6 | 0.00 | 0.00 | 0.00 | 83 | 1031.4 |
| 20260505060705 | 60 | 267 | 1.7 | 2.6 | 0.00 | 0.00 | 0.00 | 80 | 1031.6 |
| 20260505060205 | 61 | 301 | 0.0 | 1.7 | 0.00 | 0.00 | 0.00 | 78 | 1031.3 |
| 20260505055205 | 61 | 25 | 0.9 | 1.7 | 0.00 | 0.00 | 0.00 | 78 | 1031.3 |
| 20260505054204 | 62 | 7 | 1.7 | 1.7 | 0.00 | 0.00 | 0.00 | 77 | 1031.2 |
| 20260505053705 | 62 | 352 | 1.7 | 2.6 | 0.00 | 0.00 | 0.00 | 76 | 1031.3 |
| 20260505053204 | 63 | 5 | 1.7 | 2.6 | 0.00 | 0.00 | 0.00 | 76 | 1031.2 |
| 20260505052204 | 63 | 14 | 1.7 | 5.2 | 0.00 | 0.00 | 0.00 | 74 | 1031.3 |
| 20260505051704 | 64 | 33 | 3.5 | 5.2 | 0.00 | 0.00 | 0.00 | 73 | 1031.3 |
| 20260505051205 | 64 | 10 | 2.6 | 5.2 | 0.00 | 0.00 | 0.00 | 72 | 1031.4 |
| 20260505050704 | 64 | 11 | 1.7 | 2.6 | 0.00 | 0.00 | 0.00 | 72 | 1031.2 |
| 20260505050204 | 64 | 9 | 1.7 | 2.6 | 0.00 | 0.00 | 0.00 | 72 | 1031.5 |
| 20260505041204 | 66 | 77 | 1.7 | 5.2 | 0.00 | 0.00 | 0.00 | 68 | 1031.3 |
| 20260505040704 | 66 | 11 | 2.6 | 4.3 | 0.00 | 0.00 | 0.00 | 68 | 1031.5 |
| 20260505040205 | 66 | 14 | 2.6 | 4.3 | 0.00 | 0.00 | 0.00 | 69 | 1031.6 |
| 20260505035704 | 66 | 16 | 2.6 | 5.2 | 0.00 | 0.00 | 0.00 | 69 | 1031.6 |
| 20260505035205 | 66 | 23 | 2.6 | 5.2 | 0.00 | 0.00 | 0.00 | 69 | 1031.6 |
| 20260505034704 | 67 | 0 | 1.7 | 4.3 | 0.00 | 0.00 | 0.00 | 68 | 1031.5 |